Вернуться в каталог

DELTA 1 DEB

АктивенLEO
NORAD 21500·DEBRIS·🇺🇸 United States

Запущен Jun 12, 1975 с Vandenberg Space Force Base

Loading…

Ближайшие Пролёты (ближайшие 24 часа)

TLE

СвежийSource: Space-Track

Эпоха: Sep 14, 2026, 01:26 UTC

1 21500U 75052FV  26257.05991545  .00002046  00000-0  56318-3 0  9995
2 21500 100.0397 103.1413 0155471 183.4878 336.4613 14.41469832825806

Отслеживайте DELTA 1 DEB в реальном времени с AllMySat

Download on the App Store